Terug naar catalogus

STARLINK-37474

ActiefCommunicatieVLEO
NORAD 69167·PAYLOAD·🇺🇸 United States

Gelanceerd May 21, 2026 vanaf Cape Canaveral Space Force Station

Loading…

Volgende Passages (komende 24 uur)

TLE

VersSource: CelesTrak SupGP

Epoch: Sep 14, 2026, 21:21 UTC

1 69167C 26111V   26257.89006944 -.00012527  00000+0 -37021-3 0  2573
2 69167  53.1575  91.8491 0001357  81.2915 103.9238 15.34389067    14

Volg STARLINK-37474 in realtime met AllMySat

Download on the App Store